Ынахсыт

Россия / Республика Саха (Якутия)     63°34′03″N   119°12′29″E
темп.,
°C
ветер,
м/с
пор.,
м/с
влажн.,
%
обл.,
%
осадки,
мм/ч
давл.,
гПа
погр.,
м
21 июня, пн
пн2100:00+21юв2260100 0.0 100634
03:00+20юв1168100 0.0 100612
06:00+21вюв117068 0.1 100743
09:00+27вюв114744 0.1 1006400
12:00+31зсз122777 0.0 10051439
15:00+33в022541 0.0 10042991
18:00+32зсз122549 0.0 10033027
21:00+24юв375845 0.0 1004213
22 июня, вт
вт2200:00+20юв11655 0.0 100411
03:00+19всв117296 0.3 100511
06:00+21ссв0071100 0.0 100541
09:00+22в1167100 0.0 100583
12:00+28юв1144100 0.0 1004514
15:00+31сз0235100 0.0 10041612
18:00+31з123289 0.0 10032382
21:00+27зсз115615 0.0 100311
23 июня, ср
ср2300:00+19ссв397974 0.5 1006196
03:00+17с0182100 0.8 100611
06:00+19сз13775 0.0 1007130
09:00+25сз235216 0.0 1007494
12:00+29сз2337100 0.0 10061324
15:00+31сз343117 0.0 10062504
18:00+30зсз35315 0.0 10052760
21:00+25зсз245533 0.0 100576
24 июня, чт
чт2400:00+21зсз23605 0.0 100545
03:00+17зсз22715 0.0 100520
06:00+20сз266820 0.0 1006212
09:00+24ссз36520 0.0 1006843
12:00+27ссз46390 0.0 10051866
15:00+29с35333 0.0 10042470
18:00+29с46325 0.0 10032592
21:00+24с235617 0.0 100445
25 июня, пт
пт2500:00+19св226498 0.0 100514
03:00+17ссв1167100 0.0 100511
06:00+19ссв116575 0.0 100661
09:00+25ссв12445 0.0 1006563
12:00+29с233591 0.0 10051579
15:00+30сз2333100 0.0 10052190
18:00+28сз2240100 0.0 10051052
21:00+24всв116074 0.0 100511